This is the latest recevied weather packets stored in our database for station/object K3PPP. If no packets are shown the sender has not sent any weather packets the latest 10 day(s).
| Time | Temp. | Humidity | Pressure | Rain* | Wind** | Luminosity | Snow |
|---|---|---|---|---|---|---|---|
| 1777847715 | 10.56° C | 43% | 1014.3 hPa | 0 mm | - | 74 W/m² | - |
| 1777847410 | 10.56° C | 44% | 1014.2 hPa | 0 mm | - | 67 W/m² | - |
| 1777847109 | 10.56° C | 43% | 1014.5 hPa | 0 mm | - | 63 W/m² | - |
| 1777846806 | 11.11° C | 42% | 1014.4 hPa | 0 mm | - | 67 W/m² | - |
| 1777846504 | 11.11° C | 42% | 1014.4 hPa | 0 mm | - | 148 W/m² | - |
| 1777846201 | 11.67° C | 40% | 1014.5 hPa | 0 mm | - | 152 W/m² | - |
| 1777845897 | 12.22° C | 40% | 1014.5 hPa | 0 mm | - | 169 W/m² | - |
| 1777845594 | 11.67° C | 40% | 1014.6 hPa | 0 mm | - | 255 W/m² | - |
| 1777845291 | 10.56° C | 42% | 1014.4 hPa | 0 mm | - | 284 W/m² | - |
| 1777844983 | 11.67° C | 41% | 1014.6 hPa | 0 mm | - | 76 W/m² | - |
| 1777844681 | 11.67° C | 40% | 1014.6 hPa | 0 mm | - | 315 W/m² | - |
| 1777844378 | 11.67° C | 40% | 1014.5 hPa | 0 mm | - | 329 W/m² | - |
| 1777844077 | 11.67° C | 40% | 1014.3 hPa | 0 mm | - | 331 W/m² | - |
| 1777843772 | 11.67° C | 40% | 1014.3 hPa | 0 mm | - | 333 W/m² | - |
| 1777843470 | 11.11° C | 41% | 1014.5 hPa | 0 mm | - | 392 W/m² | - |
| 1777843167 | 12.22° C | 41% | 1014.2 hPa | 0 mm | - | 105 W/m² | - |
| 1777842864 | 11.11° C | 41% | 1014.4 hPa | 0 mm | - | 448 W/m² | - |
| 1777842559 | 10.56° C | 44% | 1014.5 hPa | 0 mm | - | 106 W/m² | - |
| 1777842256 | 11.11° C | 42% | 1014.5 hPa | 0 mm | - | 401 W/m² | - |
| 1777841951 | 11.11° C | 41% | 1014.6 hPa | 0 mm | - | 145 W/m² | - |
| 1777841649 | 11.67° C | 40% | 1014.5 hPa | 0 mm | - | 101 W/m² | - |
| 1777841344 | 12.22° C | 40% | 1014.5 hPa | 0 mm | - | 485 W/m² | - |
| 1777841042 | 10.56° C | 43% | 1014.6 hPa | 0 mm | - | 577 W/m² | - |
| 1777840739 | 11.67° C | 41% | 1014.6 hPa | 0 mm | - | 129 W/m² | - |
| 1777840436 | 12.22° C | 39% | 1014.6 hPa | 0 mm | - | 546 W/m² | - |
* Rain latest hour (hover to see other rain measurements)
** Current wind speed in m/s (hover to see current wind gust speed)